TimeCDT,TemperatureF,Dew PointF,Humidity,Sea Level PressureIn,VisibilityMPH,Wind Direction,Wind SpeedMPH,Gust SpeedMPH,PrecipitationIn,Events,Conditions,WindDirDegrees,DateUTC
12:56 AM,64.0,50.0,60,29.75,10.0,South,18.4,26.5,N/A,,Clear,170,2013-09-23 05:56:00
1:56 AM,63.0,51.1,65,29.75,10.0,SSE,16.1,23.0,N/A,,Clear,160,2013-09-23 06:56:00
2:56 AM,61.0,50.0,67,29.74,10.0,SSE,16.1,21.9,N/A,,Clear,160,2013-09-23 07:56:00
3:56 AM,60.1,50.0,69,29.74,10.0,South,15.0,23.0,N/A,,Clear,170,2013-09-23 08:56:00
4:56 AM,59.0,48.9,69,29.73,10.0,SSE,12.7,-,N/A,,Scattered Clouds,160,2013-09-23 09:56:00
5:56 AM,57.9,48.9,72,29.74,10.0,SSE,10.4,19.6,N/A,,Mostly Cloudy,160,2013-09-23 10:56:00
6:56 AM,57.0,48.0,72,29.76,10.0,SSE,12.7,20.7,N/A,,Mostly Cloudy,160,2013-09-23 11:56:00
7:56 AM,57.9,48.0,70,29.76,10.0,SSE,13.8,-,N/A,,Mostly Cloudy,150,2013-09-23 12:56:00
8:56 AM,59.0,48.9,69,29.76,10.0,South,16.1,27.6,N/A,,Mostly Cloudy,170,2013-09-23 13:56:00
9:56 AM,63.0,50.0,63,29.76,10.0,South,23.0,31.1,N/A,,Mostly Cloudy,170,2013-09-23 14:56:00
10:56 AM,66.9,50.0,54,29.76,10.0,South,19.6,27.6,N/A,,Mostly Cloudy,170,2013-09-23 15:56:00
11:56 AM,72.0,51.1,48,29.75,10.0,South,16.1,25.3,N/A,,Scattered Clouds,170,2013-09-23 16:56:00
12:56 PM,75.0,48.9,40,29.73,10.0,SSE,19.6,27.6,N/A,,Mostly Cloudy,160,2013-09-23 17:56:00
1:56 PM,75.9,48.9,38,29.71,10.0,South,21.9,31.1,N/A,,Mostly Cloudy,180,2013-09-23 18:56:00
2:56 PM,77.0,48.9,37,29.71,10.0,South,21.9,28.8,N/A,,Partly Cloudy,190,2013-09-23 19:56:00
3:56 PM,77.0,46.9,34,29.72,10.0,SSE,21.9,33.4,N/A,,Partly Cloudy,160,2013-09-23 20:56:00
4:56 PM,78.1,46.9,33,29.72,10.0,SSE,17.3,-,N/A,,Partly Cloudy,150,2013-09-23 21:56:00
5:56 PM,75.9,46.9,36,29.73,10.0,SSE,15.0,24.2,N/A,,Scattered Clouds,160,2013-09-23 22:56:00
6:56 PM,72.0,48.0,43,29.76,10.0,SSE,12.7,21.9,N/A,,Scattered Clouds,160,2013-09-23 23:56:00
7:56 PM,70.0,48.9,47,29.76,10.0,SE,10.4,-,N/A,,Mostly Cloudy,140,2013-09-24 00:56:00
8:56 PM,70.0,48.9,47,29.76,10.0,SE,11.5,-,N/A,,Overcast,130,2013-09-24 01:56:00
9:56 PM,66.9,48.9,52,29.80,10.0,SE,13.8,-,N/A,,Overcast,140,2013-09-24 02:56:00
10:56 PM,66.0,48.9,54,29.82,10.0,SE,9.2,-,N/A,,Overcast,130,2013-09-24 03:56:00
11:56 PM,64.9,48.9,56,29.81,10.0,SE,8.1,-,N/A,,Overcast,140,2013-09-24 04:56:00